Regional Weather Roundup
Issued by NWS

Home | Current Version | Previous Version | Text Only | Print | Product List | Glossary Off
Versions: 1 2 3 4 5 6 7 8 9 10 11 12 13 14 15 16 17 18 19 20 21 22 23 24 25 26 27 28 29 30 31 32 33 34 35 36 37 38 39 40 41 42 43 44 45 46 47 48 49 50

000
ASUS43 KLMK 280910
RWRKY
KENTUCKY REGIONAL WEATHER ROUNDUP
NATIONAL WEATHER SERVICE LOUISVILLE KY
500 AM EDT SAT MAY 28 2016

NOTE "FAIR" INDICATES FEW OR NO CLOUDS BELOW 12,000 FEET
WITH NO SIGNIFICANT WEATHER AND/OR OBSTRUCTIONS TO VISIBILITY.

KYZ001>023-026-027-061>063-070>075-281000-
WESTERN AND SOUTH CENTRAL KENTUCKY

CITY           SKY/WX    TMP DP  RH WIND       PRES   REMARKS
PADUCAH        CLOUDY    70  63  78 S5        29.93R
HENDERSON      PTCLDY    72  63  73 SE8       29.94S
OWENSBORO      PTCLDY    71  68  90 SE8       29.98R
HOPKINSVILLE   CLOUDY    71  66  85 SE5       29.97R
BOWLING GREEN  CLOUDY    70  67  90 SE3       30.00S
GLASGOW        CLOUDY    69  69 100 CALM      30.02S
$$

KYZ024-025-028>034-038-045-046-053-281000-
NORTH CENTRAL KENTUCKY

CITY           SKY/WX    TMP DP  RH WIND       PRES   REMARKS
LOUISVILLE/SDF CLOUDY    70  67  90 SE6       30.00S
LOUISVILLE/LOU LGT RAIN  70  66  87 SE5       30.01R
FORT KNOX      MOCLDY    68  65  90 S3        30.00R
$$

KYZ035>037-039>044-047>052-055>060-089>105-281000-
NORTHEAST KENTUCKY

CITY           SKY/WX    TMP DP  RH WIND       PRES   REMARKS
LEXINGTON      CLEAR     67  63  87 SE6       30.06R
COVINGTON      PTCLDY    68  65  90 S6        30.03R
FRANKFORT      CLEAR     67  63  87 SE6       30.03R
$$

KYZ054-064>069-076>088-106>120-281000-
SOUTHEAST KENTUCKY

CITY           SKY/WX    TMP DP  RH WIND       PRES   REMARKS
JACKSON        CLEAR     67  63  87 SE3       30.09S
LONDON         PTCLDY    65  61  87 CALM      30.09R
SOMERSET       CLEAR     63  63 100 CALM      30.08S
MIDDLESBORO    FOG       61  61 100 CALM      30.12R VSB 1/4
MONTICELLO     SUNNY     67  64  90 VRB7      30.08S
$$




USA.gov is the U.S. government's official web portal to all federal, state and local government web resources and services.